User: anonymous   Login
Location: Waldport
(44.4270°N, 124.0680°W)
Time: 15:34:13
(UTC-08:00)
Language:

Cosmos 1570 Rocket - Orbit

View from above orbital plane
View from above orbital plane
View from above satellite
View from above satellite

Ground track
Ground track

The orbit data is extracted from the following two-line orbital elements,

1 15032U 84056B   18047.89733999 -.00000011  00000-0  52394-5 0  9992
2 15032  74.0728 348.8663 0016120  89.8664 270.4335 14.34737486762017
Epoch (UTC): 16 February 2018 21:32:10
Eccentricity: 0.0016120
inclination: 74.0728°
perigee height: 764 km
apogee height: 787 km
right ascension of ascending node: 348.8663°
argument of perigee: 89.8664°
revolutions per day: 14.34737486
mean anomaly at epoch: 270.4335°
orbit number at epoch: 76201

The dashed part of the orbit path shows where the satellite is in the earth's shadow,  

DLR